TimeCST,TemperatureF,Dew PointF,Humidity,Sea Level PressureIn,VisibilityMPH,Wind Direction,Wind SpeedMPH,Gust SpeedMPH,PrecipitationIn,Events,Conditions,WindDirDegrees,DateUTC
12:00 AM,66.2,64.4,94,30.27,6.2,North,6.9,-,N/A,,Mostly Cloudy,10,2013-10-05 06:00:00
1:00 AM,64.4,62.6,94,30.27,6.2,North,5.8,-,N/A,,Scattered Clouds,360,2013-10-05 07:00:00
2:00 AM,64.4,62.6,94,30.24,6.2,North,6.9,-,N/A,,Mostly Cloudy,360,2013-10-05 08:00:00
3:00 AM,64.4,60.8,88,30.24,6.2,North,11.5,-,N/A,,Mostly Cloudy,360,2013-10-05 09:00:00
4:00 AM,62.6,60.8,94,30.24,6.2,North,13.8,-,N/A,,Mostly Cloudy,360,2013-10-05 10:00:00
5:00 AM,62.6,59.0,88,30.24,6.2,North,9.2,-,N/A,,Scattered Clouds,360,2013-10-05 11:00:00
6:00 AM,62,59,88,29.95,25,NNE,9.2,,,,Overcast,20,2013-10-05 12:00:00
6:00 AM,62.6,59.0,88,30.24,6.2,NNE,9.2,-,N/A,,Mostly Cloudy,20,2013-10-05 12:00:00
7:00 AM,64.4,60.8,88,30.24,6.2,NNE,9.2,-,N/A,,Mostly Cloudy,20,2013-10-05 13:00:00
8:00 AM,68.0,60.8,78,30.24,-9999.0,NE,4.6,-,N/A,,Clear,40,2013-10-05 14:00:00
9:00 AM,71.6,59.0,64,30.27,-9999.0,North,6.9,-,N/A,,Clear,360,2013-10-05 15:00:00
10:00 AM,75.2,60.8,61,30.27,6.2,North,4.6,-,N/A,,Overcast,360,2013-10-05 16:00:00
11:00 AM,75.2,60.8,61,30.27,6.2,Calm,Calm,-,N/A,,Mostly Cloudy,0,2013-10-05 17:00:00
12:00 PM,77.0,60.8,57,30.24,6.2,SW,4.6,-,N/A,,Mostly Cloudy,220,2013-10-05 18:00:00
1:00 PM,75.2,62.6,65,30.21,6.2,South,11.5,-,N/A,,Scattered Clouds,180,2013-10-05 19:00:00
2:00 PM,73.4,64.4,73,30.18,4.3,South,11.5,-,N/A,Rain-Thunderstorm,Light Thunderstorms and Rain,180,2013-10-05 20:00:00
2:35 PM,-9999,-9999,N/A,-9999,1.9,South,6.9,-,N/A,Rain-Thunderstorm,Thunderstorms and Rain,180,2013-10-05 20:35:00
3:00 PM,68.0,66.2,94,30.18,1.2,Variable,3.5,-,N/A,Rain-Thunderstorm,Thunderstorms and Rain,0,2013-10-05 21:00:00
3:35 PM,-9999,-9999,N/A,-9999,3.1,Variable,3.5,-,N/A,Rain,Light Rain,0,2013-10-05 21:35:00
4:00 PM,68.0,64.4,88,30.18,3.1,Variable,3.5,-,N/A,Rain-Thunderstorm,Light Thunderstorms and Rain,0,2013-10-05 22:00:00
4:17 PM,-9999,-9999,N/A,-9999,3.1,Calm,Calm,-,N/A,,Scattered Clouds,0,2013-10-05 22:17:00
5:00 PM,68.0,64.4,88,30.18,3.1,ESE,4.6,-,N/A,,Mostly Cloudy,120,2013-10-05 23:00:00
6:00 PM,66.2,64.4,94,30.18,3.7,South,4.6,-,N/A,,Scattered Clouds,180,2013-10-06 00:00:00
7:00 PM,66.2,64.4,94,30.21,1.2,Calm,Calm,-,N/A,,Mostly Cloudy,0,2013-10-06 01:00:00
8:00 PM,66.2,64.4,94,30.21,1.2,Calm,Calm,-,N/A,,Mostly Cloudy,0,2013-10-06 02:00:00
9:00 PM,66.2,64.4,94,30.27,1.9,Calm,Calm,-,N/A,,Scattered Clouds,0,2013-10-06 03:00:00
9:23 PM,-9999,-9999,N/A,-9999,3.7,North,9.2,-,N/A,,Mostly Cloudy,360,2013-10-06 03:23:00
10:00 PM,66.2,64.4,94,30.27,3.7,North,6.9,-,N/A,,Mostly Cloudy,360,2013-10-06 04:00:00
11:00 PM,66.2,64.4,94,30.27,5.0,North,9.2,-,N/A,,Mostly Cloudy,360,2013-10-06 05:00:00